Regional Weather Roundup
Issued by NWS Green Bay, WI

Home | Current Version | Previous Version | Text Only | Print | Product List | Glossary On
Versions: 1 2 3 4 5 6 7 8 9 10 11 12 13 14 15 16 17 18 19 20 21 22 23 24 25 26 27 28 29 30 31 32 33 34 35 36 37 38 39 40 41 42 43 44 45 46 47 48 49 50
000
ASUS43 KGRB 010059
RWRGRB

NORTH-CENTRAL AND NORTHEAST WISCONSIN REGIONAL WEATHER ROUNDUP
NATIONAL WEATHER SERVICE GREEN BAY WI
800 PM CDT THU JUL 31 2014

WIZ005-009-010>012-018-019-010200-
NORTH CENTRAL WISCONSIN

CITY           SKY/WX    TMP DP  RH WIND       PRES   REMARKS
IRONWOOD       NOT AVBL
MANITOWISH WTR NOT AVBL
ARBOR VITAE    NOT AVBL
EAGLE RIVER    NOT AVBL
LAND O LAKES   NOT AVBL
RHINELANDER    CLEAR     67  56  67 CALM      30.01R
PHILLIPS       NOT AVBL
ANTIGO         NOT AVBL
TOMAHAWK       NOT AVBL
MERRILL        NOT AVBL
$$

WIZ013-073-010200-
NORTHEAST WISCONSIN

CITY           SKY/WX    TMP DP  RH WIND       PRES   REMARKS
IRON MOUNTAIN  CLEAR     71  51  49 NW3       29.97R
MARINETTE      CLEAR     72  57  60 CALM      29.94R
$$

WIZ017-030-035>037-045-010200-
CENTRAL WISCONSIN

CITY           SKY/WX    TMP DP  RH WIND       PRES   REMARKS
MEDFORD        NOT AVBL
WAUSAU         PTCLDY    71  61  70 W6        29.98R
MOSINEE        PTCLDY    70  61  73 VRB3      30.01R
MARSHFIELD     MOCLDY    71  61  70 W6        30.00R
WISC RAPIDS    PTCLDY    74  59  59 W3        30.01S
STEVENS POINT  NOT AVBL
WAUPACA        NOT AVBL
SHAWANO        NOT AVBL
CLINTONVILLE   NOT AVBL
$$

WIZ038-039-048-051-010200-
FOX VALLEY

CITY           SKY/WX    TMP DP  RH WIND       PRES   REMARKS
NWS GREEN BAY  PTCLDY    71  64  78 W6        29.97R
APPLETON       MOCLDY    70  61  73 SW6       29.99R
OSHKOSH        MOCLDY    66  62  87 SW3       29.99R
FOND DU LAC    CLOUDY    70  59  68 NW8       30.00R
$$

WIZ022-050-052-010200-
EAST CENTRAL WISCONSIN

CITY           SKY/WX    TMP DP  RH WIND       PRES   REMARKS
STURGEON BAY   CLEAR     70  61  73 S7        29.96S
MANITOWOC      NOT AVBL
SHEBOYGAN      LGT RAIN  70  63  78 NW7       29.99R
$$

LMZ563-521-522-541>543-010200-
LAKESHORE

STATION/POSITION TIME  TEMP    WIND        PRES    VSBY  WAVE
                       AIR SEA DIR/SP/G                  HT/PER
                 (UTC) (F)     (DEG/KT/KT) (MB)    (MI)  (FT/S)
SHEBOYGAN LKSHOR 0000   71     170/  7/  8 1014.7S
KEWAUNEE LKSHORE 0000   59     180/ 12/ 13 1013.9F
TWO RIVERS CG    0000   60 63                N/A    3 1/2  1
NORTHPORT PIER   0000   71     190/  4/  8 1013.9S
N MID LAKE BUOY  0000   59 55  220/ 14/ 14 1013.6R         2/ 4
S GREEN BAY BUOY 0000   73 71  190/  2     1015.0F
SISTER BAY LKSHO 0000   74     180/  9/ 11   N/A
CHAMBERS ISLAND  0000   74     180/  2/  4 1013.9S
MENOMINEE LKSHOR 0000   76     310/  3/  5 1014.3F
$$


USA.gov is the U.S. government's official web portal to all federal, state and local government web resources and services.